Location: Newark
(43.6583°N, 1.6617°E)
Time: 05:25:55
(UTC+00:00)

Courier 1B - Pass Details

Date: 26 August 2019
Orbit: 962 x 1209 km, 28.3° (Epoch: 22 September)

Event Time Altitude Azimuth Distance (km) Brightness Sun altitude
Rises 17:28:25 0° 240° (WSW) 3,841 11.6 11.9°
Reaches altitude 10° 17:31:53 10° 225° (SW) 2,840 10.7 11.3°
Maximum altitude 17:36:49 21° 179° (S) 2,081 9.3 10.4°
Drops below altitude 10° 17:41:36 10° 132° (SE) 2,733 9.4 9.6°
Sets 17:44:52 0° 117° (ESE) 3,657 9.9 9.0°
